[[{"header":{"parameterUnit":"m.s-1","parameterCategory":2,"la1":30.2991,"la2":30.254,"lo1":-89.0895,"lo2":-89.0444,"dy":0.0017,"dx":0.0017,"nx":28,"ny":28,"refTime":"2025-07-11T03:00:00:Z","depth":"0","parameterNumber":2,"parameterNumberName":"U-component_of_CURRENTS"},"data":[0,0,0,0,0,0,0,0,0,0,0,0,0,0,0,0,0,0,0,0,0,0,0,0,0,0,0,0,0,0,0,0,0,0,0,0,0,0,0,0,0,0,0,0,0,0,0,0,0,0,0,0,0,0,0,0,0,0,0.4921,0.4922,0,0.5054,0.5055,0.5056,0.5033,0.5031,0.5029,0.5027,0.5118,0.5122,0.5126,0,0,0,0,0,0,0,0,0,0,0,0,0,0.4671,0.4675,0.492,0.4923,0.4925,0.5053,0.5055,0.5056,0.5033,0.5031,0.5029,0.5026,0.5117,0.5122,0.5127,0,0,0,0,0,0,0,0,0,0,0,0,0,0.4784,0.4677,0.492,0.4933,0.4935,0.5053,0.5055,0.5056,0.5034,0.5031,0.5028,0.5025,0.5115,0.5121,0.5128,0.5222,0,0,0.5147,0.5149,0,0,0,0,0,0,0,0,0.4778,0.4793,0.4929,0.4932,0.4935,0.5028,0.5001,0.5111,0.5034,0.4991,0.5027,0.5024,0.509,0.5098,0.5122,0.5226,0.523,0.5147,0.5151,0.5154,0.5155,0,0,0,0,0,0,0,0.477,0.4787,0.4968,0.4931,0.4935,0.494,0.4953,0.5021,0.505,0.4994,0.4994,0.5018,0.509,0.5116,0.5124,0.5231,0.5147,0.5153,0.5156,0.5159,0.5516,0.5522,0,0,0,0,0,0,0.4767,0.4781,0.4964,0.4972,0.4854,0.4947,0.4961,0.4997,0.505,0.5057,0.5021,0.5017,0.5107,0.5117,0.5127,0.5345,0.5154,0.5159,0.5163,0.5511,0.5518,0.5524,0,0,0,0,0,0,0.4761,0.4783,0.4958,0.4882,0.4905,0.4955,0.4996,0.5001,0.5039,0.5071,0.5075,0.5053,0.5105,0.5119,0.5231,0.5344,0.5162,0.5168,0.5504,0.5513,0.5521,0.5714,0,0,0,0,0,0,0.4754,0.478,0.4809,0.4883,0.491,0.5059,0.4999,0.5006,0.5059,0.5056,0.5102,0.5106,0.5104,0.5222,0.5238,0.5349,0.5173,0.5497,0.5508,0.5518,0.57,0.5728,0.5752,0,0,0,0,0,0.4745,0.4813,0.481,0.4833,0.4948,0.5063,0.5079,0.5098,0.5064,0.5113,0.5147,0.5105,0.5301,0.5233,0.5249,0.5365,0.5491,0.5505,0.5517,0.5689,0.5723,0.5751,0,0,0,0,0,0,0.4717,0.482,0.4818,0.491,0.4988,0.5061,0.5116,0.512,0.5186,0.5179,0.518,0.5192,0.5334,0.533,0.5253,0.5502,0.5391,0.5407,0.5516,0.5548,0.5573,0.5554,0.5178,0,0,0,0,0,0.4727,0.4807,0.4891,0.4967,0.5011,0.5062,0.5109,0.5129,0.5194,0.5218,0.5253,0.5308,0.5405,0.5454,0.5521,0.566,0.5638,0.5747,0.5773,0.5795,0.5794,0.586,0.589,0.5566,0.5566,0.5566,0,0,0.4733,0.4805,0.4845,0.4968,0.5024,0.514,0.5084,0.518,0.5278,0.5223,0.5364,0.54,0.5462,0.5619,0.5683,0.5627,0.5886,0.5811,0.5829,0.5816,0.5877,0.5907,0.5935,0.5575,0.5574,0.5572,0,0,0.4818,0.4858,0.4959,0.5042,0.5153,0.5203,0.5237,0.533,0.5371,0.5506,0.5508,0.5605,0.5732,0.581,0.5864,0.6076,0.6017,0.611,0.6233,0.63,0.6325,0.6347,0.6389,0.6413,0.6126,0.6126,0.6127,0,0.4816,0.4953,0.5006,0.5136,0.521,0.5241,0.5363,0.5445,0.5561,0.56,0.5571,0.5775,0.5827,0.6027,0.6116,0.6134,0.6145,0.6107,0.6329,0.635,0.637,0.6406,0.6431,0.6137,0.6136,0.6135,0.6134,0,0.4985,0.5091,0.5165,0.5334,0.5429,0.5537,0.565,0.573,0.576,0.5815,0.5975,0.6052,0.6148,0.6223,0.6245,0.6444,0.64,0.6347,0.6237,0.6413,0.6442,0.6464,0.6153,0.6149,0.6146,0.6143,0,0,0.4978,0.5227,0.5249,0.5331,0.5529,0.5609,0.5792,0.5932,0.6013,0.6118,0.6228,0.6425,0.6403,0.6465,0.6511,0.6602,0.678,0.6554,0.6552,0.6572,0.6921,0.6673,0.6671,0.6764,0.6768,0.6772,0.6895,0,0.5078,0.5309,0.5427,0.5629,0.5742,0.5835,0.5996,0.6122,0.6205,0.6322,0.6402,0.6535,0.6522,0.6581,0.6675,0.6756,0.6842,0.675,0.6766,0.6766,0.6504,0.6689,0.6352,0.6413,0.6915,0.6918,0.6921,0,0.5204,0.5331,0.5539,0.5738,0.5794,0.5918,0.6094,0.6246,0.6421,0.6485,0.6597,0.6645,0.6835,0.6768,0.6963,0.6905,0.6933,0.6972,0.6975,0.6678,0.6556,0.6316,0.6432,0.6319,0.6952,0.695,0.6947,0,0.5145,0.5401,0.5545,0.5625,0.5872,0.5949,0.6067,0.6261,0.6361,0.6578,0.663,0.6829,0.6898,0.7005,0.707,0.7041,0.723,0.7179,0.698,0.6962,0.664,0.6583,0.6613,0.7294,0.7294,0.7294,0.7293,0,0.5209,0.532,0.551,0.5586,0.5735,0.5907,0.6054,0.6212,0.6389,0.6501,0.6679,0.6773,0.6957,0.706,0.7128,0.7108,0.7263,0.7027,0.6987,0.6699,0.665,0.6499,0.6467,0.7298,0.7297,0.7296,0.7295,0,0.5171,0.5307,0.5457,0.5659,0.5723,0.5817,0.6013,0.6105,0.6295,0.6443,0.6512,0.6745,0.6876,0.7006,0.7182,0.7118,0.6971,0.7121,0.6755,0.6667,0.6294,0.6283,0.6057,0.5884,0.6922,0.6917,0.6912,0,0.5194,0.5272,0.5452,0.5508,0.56,0.5737,0.5835,0.6051,0.6144,0.6399,0.6457,0.6627,0.6696,0.6837,0.6804,0.6841,0.6758,0.6541,0.6406,0.6247,0.6212,0.6061,0.5924,0.6097,0.6086,0.6077,0.607,0,0.5208,0.5252,0.5344,0.5426,0.5518,0.562,0.5757,0.5815,0.6056,0.6124,0.624,0.6308,0.6415,0.6277,0.6302,0.6302,0.6208,0.6351,0.6305,0.5661,0.5383,0.5202,0.6057,0.5992,0.5999,0.6005,0.6009,0.6013,0.5168,0.5197,0.5255,0.5314,0.5406,0.5441,0.5414,0.5536,0.5584,0.5606,0.5873,0.5788,0.585,0.5789,0.5766,0.5509,0.5592,0.5356,0.5395,0.5289,0.4978,0.563,0.5426,0.5431,0.5434,0.5438,0.5441,0,0.5048,0.5073,0.5132,0.5153,0.5115,0.5224,0.5294,0.5177,0.5084,0.5189,0.5167,0.5072,0.4944,0.5,0.4843,0.4639,0.4488,0.4551,0.4329,0.4273,0.496,0.4777,0.4274,0.4274,0.4274,0.4275,0.4275,0.4275,0.4981,0.4939,0.4934,0.4805,0.4806,0.4646,0.4597,0.4482,0.446,0.4246,0.4116,0.4185,0.4456,0.4483,0.4271,0.4157,0.3928,0.3663,0.379,0.4357,0.4438,0.4515,0.4339,0.3752,0.3752,0.288,0.2873,0.2869]},{"header":{"parameterUnit":"m.s-1","parameterCategory":2,"la1":30.2991,"la2":30.254,"lo1":-89.0895,"lo2":-89.0444,"dy":0.0017,"dx":0.0017,"nx":28,"ny":28,"refTime":"2025-07-11T03:00:00:Z","depth":"0","parameterNumber":3,"parameterNumberName":"V-component_of_CURRENTS"},"data":[0,0,0,0,0,0,0,0,0,0,0,0,0,0,0,0,0,0,0,0,0,0,0,0,0,0,0,0,0,0,0,0,0,0,0,0,0,0,0,0,0,0,0,0,0,0,0,0,0,0,0,0,0,0,0,0,0,0,-0.0274,-0.0275,0,-0.0335,-0.0336,-0.0336,-0.0373,-0.0373,-0.0373,-0.0374,-0.0433,-0.0434,-0.0435,0,0,0,0,0,0,0,0,0,0,0,0,0,-0.0197,-0.0198,-0.0274,-0.0275,-0.0276,-0.0335,-0.0336,-0.0336,-0.0373,-0.0373,-0.0373,-0.0374,-0.0433,-0.0434,-0.0435,0,0,0,0,0,0,0,0,0,0,0,0,0,-0.0239,-0.0198,-0.0274,-0.0303,-0.0306,-0.0335,-0.0336,-0.0337,-0.0372,-0.0373,-0.0374,-0.0374,-0.0432,-0.0434,-0.0436,-0.0436,0,0,-0.0441,-0.0442,0,0,0,0,0,0,0,0,-0.0237,-0.0242,-0.0298,-0.0301,-0.0305,-0.0349,-0.033,-0.037,-0.0372,-0.0345,-0.0374,-0.0374,-0.0406,-0.041,-0.0417,-0.0439,-0.0441,-0.0441,-0.0443,-0.0443,-0.0444,0,0,0,0,0,0,0,-0.0234,-0.0239,-0.0296,-0.0299,-0.0303,-0.0316,-0.0322,-0.0338,-0.0369,-0.0347,-0.0351,-0.0361,-0.0407,-0.0415,-0.0418,-0.0442,-0.0441,-0.0443,-0.0444,-0.0445,-0.0407,-0.0405,0,0,0,0,0,0,-0.023,-0.0236,-0.0294,-0.0298,-0.0274,-0.0317,-0.0324,-0.0332,-0.037,-0.0376,-0.036,-0.0362,-0.0411,-0.0416,-0.0421,-0.0368,-0.0443,-0.0445,-0.0446,-0.0409,-0.0407,-0.0404,0,0,0,0,0,0,-0.0228,-0.0234,-0.0292,-0.027,-0.0279,-0.0318,-0.0327,-0.0333,-0.0342,-0.038,-0.0387,-0.0363,-0.0412,-0.0418,-0.0421,-0.0373,-0.0446,-0.0448,-0.0412,-0.0408,-0.0405,-0.0299,0,0,0,0,0,0,-0.0225,-0.0233,-0.0232,-0.027,-0.028,-0.0284,-0.0327,-0.0334,-0.0349,-0.0352,-0.0385,-0.0391,-0.0413,-0.0418,-0.0423,-0.0377,-0.0449,-0.0414,-0.041,-0.0406,-0.0305,-0.0292,-0.0282,0,0,0,0,0,-0.0222,-0.0214,-0.0231,-0.0238,-0.0279,-0.0283,-0.0287,-0.0316,-0.0348,-0.0331,-0.0361,-0.039,-0.0395,-0.0418,-0.0424,-0.0378,-0.0416,-0.0411,-0.0407,-0.031,-0.0295,-0.0282,0,0,0,0,0,0,-0.0178,-0.0218,-0.0238,-0.0243,-0.0252,-0.0289,-0.0286,-0.0313,-0.0325,-0.0334,-0.0377,-0.0383,-0.0363,-0.0387,-0.0411,-0.0353,-0.0405,-0.0401,-0.0329,-0.0315,-0.0304,-0.026,-0.0451,0,0,0,0,0,-0.017,-0.0175,-0.0207,-0.0208,-0.0214,-0.0252,-0.026,-0.0277,-0.0299,-0.0306,-0.0333,-0.035,-0.0347,-0.0347,-0.0354,-0.0332,-0.0346,-0.0301,-0.0289,-0.0279,-0.0245,-0.0222,-0.0205,-0.0389,-0.0389,-0.0389,0,0,-0.0155,-0.0177,-0.0181,-0.0199,-0.0217,-0.0188,-0.0257,-0.0259,-0.0228,-0.031,-0.0283,-0.0317,-0.0334,-0.0302,-0.0293,-0.0317,-0.024,-0.0273,-0.0264,-0.0235,-0.0215,-0.0197,-0.0181,-0.0385,-0.0386,-0.0387,0,0,-0.0107,-0.0145,-0.0121,-0.0119,-0.0135,-0.0148,-0.0145,-0.0175,-0.0181,-0.0169,-0.0209,-0.0207,-0.0224,-0.0208,-0.0206,-0.0132,-0.0183,-0.0145,-0.0045,-0.0024,-0.0008,0.0005,-0.0017,-0.0006,-0.0134,-0.0134,-0.0133,0,-0.0083,-0.0054,-0.011,-0.0074,-0.0058,-0.0121,-0.0068,-0.0077,-0.01,-0.0084,-0.014,-0.0124,-0.0162,-0.0085,-0.0072,-0.0101,-0.0122,-0.0101,-0.0007,0.0006,0.0018,-0.0008,0.0002,-0.0128,-0.0129,-0.0129,-0.013,0,-0.0005,0.0027,0.0042,0.0072,0.0079,0.0114,0.0094,0.0107,0.0073,0.0065,0.0105,0.0056,0.0078,0.0058,0.0005,0.0087,0.003,-0.0002,-0.0043,0.0043,0.0009,0.0018,-0.012,-0.0122,-0.0123,-0.0125,0,0,0.0047,0.0092,0.0106,0.0156,0.0164,0.0187,0.0236,0.0278,0.0337,0.0294,0.0375,0.0343,0.0302,0.0303,0.0248,0.0248,0.0276,0.0155,0.0153,0.0134,0.0289,0.0209,0.0209,0.025,0.0253,0.0255,0.022,0,0.0142,0.0257,0.0243,0.0362,0.0425,0.0393,0.0455,0.0476,0.0477,0.0535,0.049,0.0535,0.0404,0.0418,0.04,0.0322,0.031,0.0287,0.021,0.0208,0.0127,0.0222,0.0209,0.0175,0.0229,0.023,0.0231,0,0.0237,0.0312,0.0441,0.0536,0.0557,0.0616,0.0711,0.0755,0.0802,0.0803,0.0827,0.0779,0.0789,0.0657,0.0584,0.0568,0.0443,0.0358,0.0354,0.0259,0.0147,0.0104,0.0189,-0.0026,0.0245,0.0244,0.0243,0,0.0329,0.045,0.0564,0.0596,0.0687,0.0746,0.0795,0.085,0.0925,0.099,0.1053,0.1029,0.1046,0.0913,0.0705,0.0652,0.0603,0.0516,0.0329,0.0319,0.0288,0.0271,0.0166,0.0474,0.0474,0.0474,0.0474,0,0.0444,0.0538,0.0627,0.0696,0.086,0.086,0.1019,0.1064,0.1158,0.1292,0.1207,0.131,0.1108,0.1035,0.0812,0.061,0.0692,0.0379,0.033,0.0318,0.0306,0.0098,-0.0047,0.0473,0.0473,0.0474,0.0474,0,0.0533,0.0579,0.0731,0.0858,0.0909,0.1028,0.1176,0.1294,0.1348,0.153,0.1564,0.1549,0.1454,0.1219,0.1016,0.0771,0.0432,0.0468,0.0441,0.0389,-0.0013,-0.0151,-0.0324,-0.0404,0.027,0.0268,0.0266,0,0.0597,0.0679,0.0858,0.0967,0.1038,0.1198,0.1318,0.1401,0.1534,0.1688,0.1802,0.1763,0.1765,0.1417,0.1002,0.0631,0.0402,0.0342,0.0242,-0.0004,-0.0194,-0.03,-0.0361,0.0226,0.0224,0.0222,0.0221,0,0.0737,0.0783,0.0911,0.1123,0.1277,0.1445,0.1621,0.1758,0.1872,0.2023,0.2189,0.2201,0.1862,0.1488,0.0949,0.0674,0.0175,0.0297,0.0083,-0.0191,-0.0347,-0.0458,0.0176,0.0209,0.021,0.0211,0.0211,0.0212,0.0851,0.0957,0.1102,0.1298,0.1466,0.1663,0.182,0.2006,0.2227,0.245,0.2457,0.2496,0.1928,0.1199,0.0806,0.0063,0.0055,-0.0185,-0.0321,-0.0395,-0.0501,0.0077,0.0025,0.0025,0.0025,0.0025,0.0025,0,0.1008,0.1094,0.1267,0.1485,0.1654,0.1721,0.1995,0.2151,0.2417,0.2611,0.2738,0.2467,0.1775,0.1076,0.0068,-0.0453,-0.0614,-0.073,-0.0862,-0.0885,-0.0322,-0.0352,-0.0535,-0.0534,-0.0534,-0.0534,-0.0534,-0.0533,0.1099,0.1261,0.1312,0.1584,0.1729,0.1961,0.2117,0.2362,0.2541,0.2753,0.2766,0.2745,0.2177,0.042,-0.0723,-0.0971,-0.1294,-0.1431,-0.1557,-0.1181,-0.1139,-0.11,-0.1158,-0.1507,-0.1508,-0.2032,-0.2037,-0.2042]}],[{"header":{"parameterUnit":"m.s-1","parameterCategory":2,"la1":30.2991,"la2":30.254,"lo1":-89.0895,"lo2":-89.0444,"dy":0.0017,"dx":0.0017,"nx":28,"ny":28,"refTime":"2025-07-11T03:00:00:Z","depth":"2","parameterNumber":2,"parameterNumberName":"U-component_of_CURRENTS"},"data":[0,0,0,0,0,0,0,0,0,0,0,0,0,0,0,0,0,0,0,0,0,0,0,0,0,0,0,0,0,0,0,0,0,0,0,0,0,0,0,0,0,0,0,0,0,0,0,0,0,0,0,0,0,0,0,0,0,0,0.3757,0.3758,0,0.3829,0.383,0.3831,0.3876,0.3876,0.3876,0.3877,0.393,0.3931,0.3932,0,0,0,0,0,0,0,0,0,0,0,0,0,0.3652,0.3654,0.3757,0.3758,0.3759,0.3829,0.383,0.3831,0.3876,0.3876,0.3877,0.3877,0.393,0.3931,0.3933,0,0,0,0,0,0,0,0,0,0,0,0,0,0.3709,0.3654,0.3757,0.3789,0.3793,0.3829,0.383,0.3832,0.3876,0.3876,0.3877,0.3877,0.3929,0.3931,0.3933,0.3938,0,0,0.3938,0.3939,0,0,0,0,0,0,0,0,0.3705,0.3712,0.3783,0.3787,0.3791,0.3844,0.3813,0.3866,0.3876,0.3845,0.3877,0.3877,0.3899,0.3903,0.3917,0.394,0.3943,0.3939,0.394,0.394,0.3941,0,0,0,0,0,0,0,0.3701,0.371,0.3786,0.3784,0.3789,0.3798,0.3807,0.3823,0.3869,0.3847,0.3851,0.3858,0.3901,0.3915,0.3919,0.3943,0.3939,0.394,0.3941,0.3942,0.42,0.4205,0,0,0,0,0,0,0.3692,0.3706,0.3784,0.3788,0.3748,0.38,0.3809,0.3827,0.3869,0.3876,0.3858,0.386,0.3912,0.3916,0.392,0.4106,0.394,0.3942,0.3943,0.4194,0.4201,0.4207,0,0,0,0,0,0,0.369,0.3699,0.3781,0.3748,0.3759,0.3801,0.382,0.3828,0.3872,0.3878,0.3884,0.3897,0.3912,0.3918,0.4041,0.4101,0.3943,0.3945,0.4187,0.4196,0.4204,0.4363,0,0,0,0,0,0,0.3687,0.3698,0.3719,0.3747,0.376,0.3843,0.382,0.3829,0.3874,0.3879,0.3913,0.3917,0.3913,0.404,0.4043,0.4101,0.3946,0.418,0.4191,0.4202,0.435,0.4376,0.4398,0,0,0,0,0,0.3683,0.3719,0.372,0.3729,0.3784,0.3845,0.3855,0.3884,0.3876,0.392,0.3989,0.3917,0.4109,0.4047,0.405,0.4109,0.4175,0.4188,0.4201,0.434,0.4371,0.4397,0,0,0,0,0,0,0.3699,0.3727,0.3729,0.3775,0.3821,0.3854,0.3896,0.3902,0.3984,0.4003,0.3998,0.4011,0.4132,0.4119,0.4049,0.4224,0.4126,0.414,0.4231,0.426,0.4283,0.4266,0.3948,0,0,0,0,0,0.3705,0.3735,0.377,0.3812,0.3839,0.3868,0.3897,0.3922,0.3986,0.402,0.4058,0.4114,0.4181,0.4222,0.427,0.4366,0.4344,0.4409,0.4433,0.4453,0.4449,0.454,0.457,0.425,0.425,0.425,0,0,0.3715,0.3742,0.3755,0.3816,0.3852,0.3913,0.3889,0.3959,0.406,0.4013,0.4178,0.4192,0.4229,0.4356,0.4405,0.4356,0.4532,0.4469,0.4485,0.447,0.4557,0.4587,0.4614,0.4259,0.4257,0.4256,0,0,0.3764,0.3788,0.3831,0.3879,0.3946,0.3971,0.3997,0.4067,0.416,0.4301,0.4305,0.439,0.4479,0.4538,0.457,0.4756,0.4651,0.4746,0.4851,0.4942,0.4967,0.4989,0.4981,0.5001,0.4761,0.4761,0.4762,0,0.3785,0.3838,0.3859,0.3927,0.3977,0.4001,0.4077,0.4182,0.4299,0.4372,0.4387,0.4537,0.4578,0.471,0.4793,0.4805,0.4793,0.473,0.4968,0.499,0.501,0.4996,0.5016,0.4771,0.4769,0.4769,0.4768,0,0.3847,0.3916,0.3958,0.4041,0.4104,0.4178,0.4298,0.4398,0.4482,0.455,0.4722,0.4808,0.4884,0.4914,0.4918,0.5068,0.4989,0.4979,0.488,0.5051,0.5026,0.5044,0.4784,0.478,0.4778,0.4775,0,0,0.3856,0.3972,0.3995,0.4054,0.4173,0.4226,0.4412,0.4552,0.4664,0.4798,0.4969,0.5092,0.509,0.513,0.5142,0.522,0.5368,0.5162,0.5163,0.5124,0.549,0.5286,0.5284,0.5388,0.5392,0.5396,0.5406,0,0.3912,0.4027,0.4086,0.4223,0.4298,0.4385,0.4549,0.4684,0.4825,0.501,0.5119,0.5271,0.5199,0.526,0.5335,0.5364,0.5426,0.5361,0.5356,0.5354,0.513,0.5305,0.4931,0.4896,0.5423,0.5426,0.5428,0,0.3954,0.4042,0.4157,0.4321,0.4363,0.4454,0.4654,0.481,0.5048,0.5173,0.5299,0.5385,0.5535,0.5496,0.5581,0.553,0.5531,0.553,0.5531,0.5292,0.5186,0.4821,0.4908,0.5456,0.5454,0.5452,0.545,0,0.3916,0.4095,0.4176,0.4229,0.441,0.4512,0.463,0.4841,0.4987,0.5289,0.5384,0.5556,0.5672,0.5713,0.5706,0.5668,0.5781,0.5739,0.5536,0.5517,0.5172,0.5115,0.5832,0.5832,0.5832,0.5832,0.5832,0,0.393,0.4021,0.4171,0.4218,0.4361,0.4516,0.4695,0.4844,0.5096,0.5216,0.5455,0.5561,0.5738,0.5812,0.5786,0.569,0.5844,0.5568,0.5535,0.5214,0.5164,0.5626,0.5602,0.5832,0.5832,0.5832,0.5832,0,0.3901,0.396,0.4084,0.4278,0.4332,0.4455,0.4688,0.4814,0.5049,0.5235,0.5337,0.5602,0.5668,0.5762,0.5855,0.5752,0.5724,0.5658,0.522,0.5135,0.5367,0.5352,0.5428,0.5421,0.5416,0.5411,0.5408,0,0.3872,0.3929,0.41,0.4131,0.4228,0.4411,0.4514,0.4772,0.4877,0.5175,0.523,0.5444,0.5474,0.5535,0.5499,0.5438,0.558,0.5028,0.4909,0.538,0.5341,0.5334,0.5327,0.4505,0.4495,0.4486,0.4479,0,0.3869,0.3929,0.4012,0.4085,0.4171,0.4273,0.4435,0.4483,0.4738,0.4857,0.4948,0.5022,0.5146,0.4948,0.4962,0.4876,0.5012,0.4836,0.551,0.4659,0.451,0.4471,0.4495,0.4399,0.4407,0.4413,0.4417,0.442,0.3851,0.391,0.3971,0.4011,0.407,0.4068,0.4073,0.4174,0.4229,0.4294,0.4513,0.4475,0.4584,0.4379,0.4242,0.4193,0.4511,0.4314,0.4343,0.4381,0.4266,0.4116,0.3904,0.3908,0.3913,0.3916,0.392,0,0.3779,0.3846,0.3886,0.3887,0.3811,0.3924,0.3941,0.3847,0.3746,0.3877,0.3889,0.3607,0.35,0.3616,0.3412,0.3398,0.3396,0.3259,0.3236,0.3319,0.3391,0.3227,0.2588,0.2583,0.2579,0.2575,0,0,0.3746,0.3715,0.3711,0.3547,0.3554,0.3422,0.3352,0.3225,0.3219,0.3075,0.3056,0.3319,0.3485,0.2976,0.2936,0.2717,0.2991,0.2617,0.3697,0.3754,0.382,0.4025,0.3866,0,0,0,0,0]},{"header":{"parameterUnit":"m.s-1","parameterCategory":2,"la1":30.2991,"la2":30.254,"lo1":-89.0895,"lo2":-89.0444,"dy":0.0017,"dx":0.0017,"nx":28,"ny":28,"refTime":"2025-07-11T03:00:00:Z","depth":"2","parameterNumber":3,"parameterNumberName":"V-component_of_CURRENTS"},"data":[0,0,0,0,0,0,0,0,0,0,0,0,0,0,0,0,0,0,0,0,0,0,0,0,0,0,0,0,0,0,0,0,0,0,0,0,0,0,0,0,0,0,0,0,0,0,0,0,0,0,0,0,0,0,0,0,0,0,-0.0033,-0.0034,0,-0.0076,-0.0077,-0.0077,-0.0137,-0.0138,-0.0139,-0.014,-0.0198,-0.0199,-0.02,0,0,0,0,0,0,0,0,0,0,0,0,0,-0.0035,-0.0035,-0.0033,-0.0034,-0.0034,-0.0076,-0.0077,-0.0078,-0.0137,-0.0138,-0.0139,-0.014,-0.0198,-0.0199,-0.02,0,0,0,0,0,0,0,0,0,0,0,0,0,-0.0054,-0.0035,-0.0033,-0.0067,-0.007,-0.0076,-0.0077,-0.0078,-0.0137,-0.0138,-0.014,-0.0141,-0.0198,-0.0199,-0.02,-0.0183,0,0,-0.0204,-0.0204,0,0,0,0,0,0,0,0,-0.0053,-0.0054,-0.0062,-0.0065,-0.0068,-0.0101,-0.0099,-0.0113,-0.0137,-0.0114,-0.014,-0.0141,-0.0164,-0.0169,-0.0177,-0.0186,-0.0189,-0.0204,-0.0205,-0.0205,-0.0205,0,0,0,0,0,0,0,-0.0051,-0.0053,-0.0053,-0.0062,-0.0066,-0.0091,-0.0095,-0.0102,-0.0134,-0.0116,-0.012,-0.0121,-0.0167,-0.0176,-0.0179,-0.0189,-0.0204,-0.0205,-0.0206,-0.0206,-0.0192,-0.0191,0,0,0,0,0,0,-0.0038,-0.0051,-0.0051,-0.0054,-0.0061,-0.0089,-0.0094,-0.0091,-0.0134,-0.0141,-0.012,-0.0123,-0.0173,-0.0177,-0.0181,-0.0145,-0.0205,-0.0206,-0.0207,-0.0193,-0.0192,-0.0191,0,0,0,0,0,0,-0.0038,-0.0038,-0.005,-0.0052,-0.0055,-0.0088,-0.0084,-0.0091,-0.0105,-0.0136,-0.0144,-0.0127,-0.0174,-0.0179,-0.0197,-0.0149,-0.0207,-0.0208,-0.0195,-0.0193,-0.0191,-0.0086,0,0,0,0,0,0,-0.0038,-0.0037,-0.0033,-0.0051,-0.0054,-0.0036,-0.0083,-0.0091,-0.0102,-0.0108,-0.0144,-0.0151,-0.0176,-0.0196,-0.0199,-0.0152,-0.0209,-0.0196,-0.0194,-0.0192,-0.0091,-0.0081,-0.0072,0,0,0,0,0,-0.0038,-0.0011,-0.0032,-0.0032,-0.0046,-0.0034,-0.0038,-0.0068,-0.0101,-0.009,-0.0134,-0.015,-0.0184,-0.0196,-0.02,-0.0152,-0.0197,-0.0194,-0.0192,-0.0095,-0.0083,-0.0072,0,0,0,0,0,0,-0.001,-0.0015,-0.0039,-0.0017,-0.0022,-0.0043,-0.0037,-0.0063,-0.0089,-0.0104,-0.0146,-0.0154,-0.0149,-0.0171,-0.0184,-0.0144,-0.0188,-0.0186,-0.0113,-0.0102,-0.0093,-0.0059,-0.021,0,0,0,0,0,-0.0001,0.0015,0.0001,0.0017,0.0016,-0.0015,-0.0018,-0.0037,-0.006,-0.0074,-0.0102,-0.013,-0.0139,-0.014,-0.0156,-0.0136,-0.0175,-0.0106,-0.0097,-0.0089,-0.0066,-0.0091,-0.0082,-0.0183,-0.0183,-0.0183,0,0,0.0012,0.0012,0.0019,0.0024,0.0011,0.0045,-0.002,-0.0014,0.0014,-0.0074,-0.0057,-0.0103,-0.0131,-0.0112,-0.0108,-0.0124,-0.0087,-0.0086,-0.0078,-0.0059,-0.0087,-0.0078,-0.0069,-0.0181,-0.0181,-0.0182,0,0,0.0073,0.0048,0.009,0.0098,0.0094,0.0081,0.0086,0.0066,0.0053,0.0062,0.0004,-0.0017,-0.0027,-0.0036,-0.0041,0.0011,-0.0044,0.0005,0.0091,0.0066,0.0075,0.0082,0.0019,0.002,0.0019,0.0019,0.002,0,0.0089,0.0144,0.0104,0.0154,0.0173,0.0107,0.0164,0.0153,0.0128,0.0135,0.0087,0.0064,0.0023,0.006,0.0065,0.0039,-0.0008,0.0053,0.008,0.0086,0.0091,0.0026,0.0025,0.0025,0.0024,0.0024,0.0023,0,0.0193,0.0233,0.026,0.0302,0.0311,0.0349,0.033,0.033,0.0296,0.0289,0.0295,0.0224,0.0217,0.0198,0.0144,0.0174,0.0114,0.0087,0.0055,0.0108,0.0035,0.0032,0.0032,0.0031,0.0029,0.0028,0,0,0.0241,0.0322,0.033,0.0383,0.0394,0.0422,0.0457,0.0489,0.0532,0.0481,0.0537,0.048,0.0419,0.0406,0.0331,0.0298,0.0266,0.0209,0.0205,0.0154,0.0176,0.0136,0.0128,0.0236,0.0236,0.0237,0.01,0,0.0337,0.0479,0.0476,0.0594,0.0664,0.062,0.067,0.0679,0.0668,0.0701,0.0624,0.0644,0.0509,0.0501,0.0444,0.0322,0.0269,0.0304,0.0128,0.0122,0.0087,0.0129,0.0163,0.0045,0.0097,0.0096,0.0096,0,0.044,0.053,0.0673,0.0766,0.0787,0.0838,0.0897,0.0937,0.0949,0.0941,0.092,0.0853,0.0797,0.0677,0.0494,0.0516,0.0355,0.0244,0.0236,0.0169,0.008,0.0004,0.0037,0.0091,0.0091,0.0092,0.0092,0,0.0522,0.0656,0.078,0.0817,0.0911,0.0954,0.099,0.1018,0.1078,0.1101,0.1142,0.1046,0.1018,0.0821,0.0559,0.0529,0.0346,0.0284,0.0093,0.0085,0.0069,0.006,0.016,0.016,0.0161,0.0161,0.0161,0,0.0634,0.073,0.0837,0.0913,0.106,0.1066,0.1199,0.1219,0.1276,0.1375,0.1273,0.1309,0.1052,0.0905,0.0637,0.036,0.0402,0.0121,0.0065,0.0102,0.0098,0.0108,0.0104,0.0156,0.0157,0.0158,0.0159,0,0.071,0.0779,0.0936,0.1064,0.111,0.1215,0.1342,0.1443,0.1466,0.159,0.1608,0.1521,0.1329,0.1041,0.0732,0.0486,0.0218,0.0101,0.0141,0.0094,-0.0058,-0.0055,-0.0113,-0.0115,-0.0117,-0.0118,-0.0119,0,0.078,0.0866,0.1049,0.115,0.1216,0.1365,0.1476,0.1543,0.1647,0.1711,0.1782,0.1657,0.1558,0.1094,0.0681,0.0248,0.0189,-0.001,-0.005,-0.0028,-0.0077,-0.0072,-0.0067,-0.0056,-0.0057,-0.0057,-0.0058,0,0.0906,0.0949,0.1075,0.1275,0.142,0.159,0.1738,0.185,0.1929,0.2001,0.2034,0.1958,0.1554,0.1134,0.0584,0.0295,0.0067,-0.0035,0.0005,0.0018,0.0017,-0.0029,-0.0024,-0.0063,-0.0062,-0.0062,-0.0061,-0.0061,0.0993,0.1086,0.1226,0.1403,0.1575,0.1764,0.1897,0.2028,0.2173,0.2252,0.219,0.2064,0.1642,0.0925,0.0462,0.0007,0.0023,-0.0162,-0.0157,-0.0152,-0.011,-0.0112,-0.0212,-0.0213,-0.0213,-0.0213,-0.0214,0,0.1111,0.1185,0.1344,0.1554,0.1716,0.1797,0.2034,0.2131,0.2272,0.2333,0.231,0.1881,0.143,0.095,0.0268,-0.015,-0.0167,-0.0279,-0.0212,-0.0204,-0.0198,-0.0156,-0.0272,-0.0274,-0.0275,-0.0276,0,0,0.1177,0.1319,0.1366,0.1614,0.1753,0.1971,0.2099,0.2224,0.2299,0.2312,0.224,0.2125,0.1551,0.1043,0.0496,0.0104,0.0044,0.0032,0.0124,0.0276,0.0287,-0.0085,-0.0006,0,0,0,0,0]}],[{"header":{"parameterUnit":"m.s-1","parameterCategory":2,"la1":30.2991,"la2":30.254,"lo1":-89.0895,"lo2":-89.0444,"dy":0.0017,"dx":0.0017,"nx":28,"ny":28,"refTime":"2025-07-11T03:00:00:Z","depth":"4","parameterNumber":2,"parameterNumberName":"U-component_of_CURRENTS"},"data":[0,0,0,0,0,0,0,0,0,0,0,0,0,0,0,0,0,0,0,0,0,0,0,0,0,0,0,0,0,0,0,0,0,0,0,0,0,0,0,0,0,0,0,0,0,0,0,0,0,0,0,0,0,0,0,0,0,0,0.1917,0.1918,0,0.1998,0.1999,0.1999,0.2072,0.2074,0.2076,0.2077,0.2096,0.2095,0.2094,0,0,0,0,0,0,0,0,0,0,0,0,0,0.1887,0.1886,0.1917,0.1919,0.192,0.1998,0.1999,0.1999,0.2072,0.2074,0.2076,0.2078,0.2097,0.2096,0.2094,0,0,0,0,0,0,0,0,0,0,0,0,0,0.1919,0.1886,0.1916,0.1973,0.1979,0.1998,0.1999,0.1999,0.2072,0.2074,0.2077,0.2079,0.2097,0.2096,0.2094,0.2035,0,0,0.2089,0.2089,0,0,0,0,0,0,0,0,0.1917,0.1919,0.1963,0.1969,0.1976,0.2035,0.1996,0.2011,0.2071,0.2027,0.2077,0.208,0.2074,0.2074,0.2073,0.2036,0.2036,0.2089,0.2088,0.2088,0.2087,0,0,0,0,0,0,0,0.1914,0.1916,0.194,0.1964,0.1973,0.2016,0.2021,0.1999,0.2028,0.2031,0.2039,0.2061,0.2076,0.2074,0.2074,0.2037,0.2089,0.2088,0.2087,0.2086,0.2196,0.22,0,0,0,0,0,0,0.1915,0.1913,0.1938,0.1944,0.1962,0.2015,0.2021,0.2007,0.203,0.2039,0.2059,0.2064,0.2076,0.2076,0.2075,0.2214,0.2088,0.2086,0.2085,0.2192,0.2197,0.2201,0,0,0,0,0,0,0.1913,0.1915,0.1935,0.194,0.1947,0.2013,0.1997,0.2007,0.2062,0.2053,0.2059,0.211,0.2078,0.2077,0.2101,0.2208,0.2086,0.2084,0.2188,0.2194,0.2199,0.2359,0,0,0,0,0,0,0.1911,0.1912,0.192,0.1938,0.1947,0.1982,0.1995,0.2007,0.2072,0.2081,0.2097,0.2099,0.2079,0.2104,0.21,0.2203,0.2083,0.2183,0.2191,0.2197,0.2349,0.237,0.2387,0,0,0,0,0,0.1909,0.1909,0.1918,0.1924,0.1946,0.1984,0.1992,0.2043,0.2073,0.21,0.2114,0.2102,0.215,0.2103,0.2098,0.2205,0.218,0.2188,0.2197,0.234,0.2365,0.2387,0,0,0,0,0,0,0.1913,0.1918,0.1928,0.1933,0.1974,0.2001,0.2039,0.2069,0.21,0.2121,0.2109,0.211,0.2191,0.216,0.211,0.2262,0.2179,0.2187,0.229,0.2314,0.2332,0.2306,0.2082,0,0,0,0,0,0.191,0.1909,0.1933,0.1948,0.1967,0.2009,0.204,0.2075,0.2102,0.2122,0.2133,0.2162,0.2211,0.223,0.2247,0.2289,0.2279,0.2369,0.2388,0.2405,0.2383,0.2509,0.2538,0.223,0.223,0.223,0,0,0.1905,0.1927,0.1918,0.1951,0.1983,0.2021,0.2033,0.2094,0.2127,0.2113,0.2165,0.2219,0.2238,0.2316,0.2352,0.2308,0.2483,0.2416,0.243,0.2398,0.2521,0.2551,0.2578,0.2236,0.2235,0.2234,0,0,0.1912,0.1926,0.1926,0.1966,0.2034,0.2065,0.2095,0.2142,0.2166,0.2217,0.2252,0.2343,0.2384,0.2431,0.2459,0.2579,0.2584,0.2639,0.2708,0.2834,0.286,0.2883,0.2883,0.2904,0.2646,0.2647,0.2647,0,0.192,0.1924,0.1942,0.1979,0.2026,0.2091,0.2129,0.2154,0.2209,0.2253,0.2257,0.2431,0.2432,0.2571,0.2626,0.2622,0.2669,0.262,0.2859,0.2882,0.2902,0.2897,0.2919,0.2655,0.2654,0.2654,0.2653,0,0.1916,0.1951,0.1972,0.2028,0.2077,0.2134,0.2176,0.2241,0.2304,0.2353,0.2505,0.2538,0.2659,0.2708,0.2693,0.2881,0.2857,0.2875,0.2798,0.2943,0.2928,0.2947,0.2668,0.2665,0.2662,0.266,0,0,0.1872,0.1945,0.1974,0.2004,0.2116,0.2151,0.2234,0.2331,0.2425,0.2508,0.2625,0.2746,0.2832,0.2866,0.2918,0.3006,0.3168,0.3016,0.3019,0.3006,0.3402,0.3181,0.3179,0.3282,0.3287,0.3291,0.3322,0,0.1883,0.1942,0.1996,0.2084,0.2104,0.2215,0.2298,0.2403,0.2503,0.2622,0.2722,0.2853,0.2875,0.2978,0.3086,0.3148,0.3235,0.3152,0.3267,0.3266,0.305,0.3201,0.3308,0.3336,0.334,0.3343,0.3346,0,0.1875,0.1913,0.1984,0.2102,0.2133,0.2224,0.2411,0.2486,0.267,0.2767,0.2951,0.3015,0.3161,0.3155,0.3355,0.333,0.338,0.3406,0.341,0.3152,0.3084,0.3168,0.338,0.3378,0.3375,0.3373,0.3371,0,0.1816,0.1921,0.1983,0.2021,0.216,0.2254,0.2366,0.256,0.2657,0.2871,0.2985,0.318,0.3286,0.3411,0.3468,0.3457,0.3643,0.3624,0.3459,0.3439,0.3552,0.3528,0.3775,0.3775,0.3775,0.3775,0.3775,0,0.1792,0.1849,0.1973,0.2003,0.2134,0.2236,0.2416,0.2575,0.2785,0.2921,0.3071,0.3192,0.338,0.3485,0.3523,0.3539,0.3711,0.3468,0.3461,0.3612,0.3595,0.3563,0.3538,0.3776,0.3776,0.3776,0.3776,0,0.1718,0.1801,0.1875,0.2033,0.2105,0.2204,0.2449,0.2549,0.2786,0.2963,0.3033,0.3254,0.3383,0.3492,0.3656,0.3584,0.3616,0.3588,0.368,0.3677,0.3291,0.3275,0.3362,0.3355,0.335,0.3345,0.334,0,0.1675,0.1702,0.189,0.196,0.2052,0.2208,0.2312,0.2555,0.2658,0.2969,0.3018,0.3215,0.333,0.3349,0.35,0.3535,0.3527,0.3487,0.3423,0.3279,0.3264,0.3256,0.3248,0.3331,0.333,0.3328,0.3327,0,0.1592,0.1698,0.178,0.1913,0.2031,0.2117,0.2281,0.2347,0.2602,0.2825,0.2952,0.3014,0.314,0.3223,0.3291,0.332,0.3472,0.3425,0.3436,0.3375,0.3242,0.3231,0.323,0.3306,0.3309,0.3311,0.3312,0,0.1576,0.1608,0.1739,0.1851,0.1976,0.1986,0.2085,0.2191,0.2329,0.2663,0.2701,0.2907,0.3119,0.3114,0.3176,0.3182,0.313,0.3024,0.3055,0.3079,0.2977,0.2765,0.2686,0,0,0,0,0,0.1533,0.1542,0.164,0.1725,0.1838,0.1894,0.2041,0.2127,0.2361,0.2389,0.2556,0.2659,0.2757,0.2861,0.281,0.3024,0.3121,0.2949,0.3008,0.3194,0.3217,0.3126,0,0,0,0,0,0,0.1494,0.1578,0.1591,0.1605,0.1627,0.169,0.1764,0.1909,0.1946,0.2215,0.2279,0.2501,0.2624,0.2769,0.2763,0.2796,0.2777,0.31,0.3093,0.318,0.3202,0.3221,0.3135,0,0,0,0,0]},{"header":{"parameterUnit":"m.s-1","parameterCategory":2,"la1":30.2991,"la2":30.254,"lo1":-89.0895,"lo2":-89.0444,"dy":0.0017,"dx":0.0017,"nx":28,"ny":28,"refTime":"2025-07-11T03:00:00:Z","depth":"4","parameterNumber":3,"parameterNumberName":"V-component_of_CURRENTS"},"data":[0,0,0,0,0,0,0,0,0,0,0,0,0,0,0,0,0,0,0,0,0,0,0,0,0,0,0,0,0,0,0,0,0,0,0,0,0,0,0,0,0,0,0,0,0,0,0,0,0,0,0,0,0,0,0,0,0,0,0.015,0.0149,0,0.0136,0.0136,0.0136,0.0101,0.0101,0.01,0.0099,0.0059,0.0059,0.0058,0,0,0,0,0,0,0,0,0,0,0,0,0,0.01,0.0101,0.015,0.0149,0.0149,0.0136,0.0136,0.0136,0.0102,0.0101,0.01,0.0099,0.0059,0.0059,0.0058,0,0,0,0,0,0,0,0,0,0,0,0,0,0.0107,0.0101,0.015,0.0131,0.0129,0.0137,0.0136,0.0136,0.0102,0.0101,0.01,0.0099,0.0059,0.0059,0.0058,0.0077,0,0,0.0056,0.0056,0,0,0,0,0,0,0,0,0.0107,0.0109,0.0134,0.0132,0.013,0.012,0.0104,0.0115,0.0102,0.0112,0.0099,0.0098,0.0078,0.0076,0.0076,0.0075,0.0073,0.0056,0.0056,0.0056,0.0056,0,0,0,0,0,0,0,0.0107,0.0109,0.0144,0.0133,0.0131,0.0107,0.0108,0.0106,0.01,0.0111,0.0108,0.0108,0.0076,0.0076,0.0074,0.0072,0.0056,0.0056,0.0056,0.0055,0.0042,0.0042,0,0,0,0,0,0,0.0113,0.011,0.0145,0.0144,0.0116,0.0109,0.011,0.0124,0.0101,0.0097,0.0108,0.0106,0.0078,0.0075,0.0073,0.0077,0.0056,0.0055,0.0055,0.0042,0.0042,0.0042,0,0,0,0,0,0,0.0112,0.0117,0.0145,0.0125,0.0127,0.0112,0.0128,0.0124,0.0121,0.0099,0.0094,0.0108,0.0077,0.0074,0.0064,0.0075,0.0055,0.0054,0.0042,0.0042,0.0042,0.0095,0,0,0,0,0,0,0.0111,0.0117,0.013,0.0126,0.0129,0.0156,0.0129,0.0125,0.0122,0.0119,0.0098,0.0093,0.0076,0.0065,0.0064,0.0074,0.0054,0.0042,0.0042,0.0042,0.0093,0.0096,0.0099,0,0,0,0,0,0.0109,0.0143,0.0131,0.0135,0.0147,0.0157,0.0156,0.014,0.0124,0.0131,0.0107,0.0094,0.0063,0.0065,0.0063,0.0074,0.0042,0.0042,0.0042,0.0091,0.0096,0.0099,0,0,0,0,0,0,0.0127,0.0142,0.0129,0.0164,0.0158,0.0151,0.0161,0.0145,0.0134,0.0128,0.01,0.0094,0.0086,0.0072,0.0075,0.0067,0.0048,0.0048,0.0087,0.0091,0.0094,0.0115,0.0053,0,0,0,0,0,0.0137,0.0166,0.0162,0.0186,0.0189,0.0173,0.0174,0.0162,0.0151,0.0145,0.0126,0.0104,0.0087,0.0083,0.0066,0.0072,0.0032,0.0074,0.0077,0.008,0.0094,0.003,0.0029,0.0041,0.0041,0.0041,0,0,0.015,0.0161,0.0176,0.0191,0.0188,0.0202,0.0171,0.0181,0.0189,0.0144,0.0149,0.0116,0.0088,0.0086,0.0082,0.0077,0.0053,0.008,0.0083,0.0096,0.003,0.0029,0.0027,0.0041,0.0041,0.0041,0,0,0.0194,0.02,0.0236,0.024,0.0241,0.0228,0.0232,0.0223,0.0217,0.0219,0.0177,0.0151,0.014,0.0114,0.0101,0.0115,0.0068,0.0107,0.015,0.0087,0.0086,0.0084,0.0024,0.0017,0.0114,0.0114,0.0115,0,0.0204,0.0254,0.0245,0.0275,0.0283,0.0243,0.0272,0.0264,0.0249,0.025,0.0229,0.0185,0.0156,0.0143,0.0142,0.0125,0.0079,0.014,0.0092,0.0089,0.0087,0.0026,0.0017,0.0117,0.0117,0.0116,0.0116,0,0.0273,0.0308,0.0331,0.0353,0.0353,0.0377,0.0357,0.0357,0.0337,0.0322,0.0305,0.0254,0.0232,0.0208,0.0183,0.0153,0.0122,0.0099,0.0085,0.0089,0.0024,0.0014,0.0121,0.012,0.0119,0.0118,0,0,0.0312,0.0371,0.0377,0.0407,0.0401,0.0415,0.0421,0.0425,0.0444,0.0403,0.0404,0.036,0.0322,0.0304,0.0253,0.0196,0.0128,0.0147,0.0143,0.0094,-0.0015,-0.0001,-0.0012,0.0091,0.009,0.0089,-0.0055,0,0.0368,0.0451,0.0455,0.0514,0.055,0.0522,0.0538,0.0527,0.0508,0.0496,0.0426,0.0411,0.0362,0.0347,0.0281,0.0164,0.0105,0.0169,-0.0015,-0.0021,-0.0005,-0.0021,0.0085,-0.0063,-0.0066,-0.0068,-0.0069,0,0.0428,0.0481,0.0561,0.0613,0.0627,0.065,0.0668,0.0684,0.0646,0.0633,0.0588,0.0519,0.0436,0.0384,0.0206,0.0247,0.0131,0.0034,0.0025,0.0018,-0.0025,-0.0068,-0.0088,-0.0087,-0.0085,-0.0084,-0.0083,0,0.0461,0.0548,0.0621,0.0641,0.0691,0.0723,0.0741,0.073,0.0763,0.0716,0.0709,0.0598,0.0544,0.0382,0.0196,0.0192,-0.0021,-0.0053,-0.0151,-0.0152,-0.0144,-0.0141,-0.0181,-0.018,-0.018,-0.018,-0.0179,0,0.0515,0.0577,0.0659,0.07,0.0795,0.0795,0.0874,0.0878,0.0879,0.0912,0.0792,0.0767,0.054,0.0388,0.0207,0.0006,-0.0009,-0.0142,-0.0186,-0.012,-0.0112,-0.0153,-0.0147,-0.0185,-0.0184,-0.0183,-0.0182,0,0.0541,0.0597,0.0689,0.0774,0.0819,0.0882,0.0977,0.1025,0.1021,0.1045,0.1031,0.0887,0.0696,0.0461,0.0186,0.0046,-0.0166,-0.0234,-0.0141,-0.0178,-0.0264,-0.0254,-0.0364,-0.0365,-0.0366,-0.0366,-0.0367,0,0.0567,0.0621,0.0747,0.0816,0.0869,0.0976,0.1048,0.1096,0.1144,0.1122,0.1123,0.0956,0.083,0.0458,0.0205,-0.0139,-0.0182,-0.0297,-0.0285,-0.025,-0.0282,-0.0272,-0.0262,-0.0367,-0.0368,-0.0368,-0.0368,0,0.0605,0.0647,0.0726,0.087,0.0973,0.1088,0.1191,0.1241,0.1282,0.1275,0.1203,0.1002,0.078,0.0478,0.0217,-0.0031,-0.0229,-0.0304,-0.0304,-0.0295,-0.0256,-0.0284,-0.0274,-0.037,-0.037,-0.0369,-0.0369,0,0.0634,0.0682,0.0785,0.0917,0.1045,0.1156,0.1215,0.1272,0.1326,0.1305,0.1278,0.1032,0.0896,0.0533,0.0288,0.0051,-0.0017,-0.0101,-0.0113,-0.0114,0.0002,0.0091,0.0049,0,0,0,0,0,0.0661,0.0716,0.0823,0.0957,0.108,0.1164,0.129,0.1333,0.1377,0.1345,0.1324,0.1119,0.0757,0.059,0.0356,0.0256,-0.0072,-0.0029,-0.0178,-0.0381,-0.0379,-0.0283,0,0,0,0,0,0,0.0668,0.077,0.0817,0.0973,0.1066,0.1206,0.1292,0.1326,0.1314,0.1316,0.113,0.1049,0.0696,0.0888,0.0344,0.0271,0.0142,-0.0194,-0.0199,-0.0382,-0.038,-0.0378,-0.0279,0,0,0,0,0]}]]